TimeAKST,TemperatureF,Dew PointF,Humidity,Sea Level PressureIn,VisibilityMPH,Wind Direction,Wind SpeedMPH,Gust SpeedMPH,PrecipitationIn,Events,Conditions,WindDirDegrees,DateUTC
12:53 AM,-9.0,-14.1,79,29.98,10.0,SW,3.5,-,N/A,,Scattered Clouds,230,2013-01-04 09:53:00
1:53 AM,-11.9,-17.0,78,29.99,10.0,Calm,Calm,-,N/A,,Scattered Clouds,0,2013-01-04 10:53:00
3:53 AM,-13.0,-18.0,78,29.99,10.0,Calm,Calm,-,N/A,,Mostly Cloudy,0,2013-01-04 12:53:00
4:53 AM,-14.1,-18.9,79,30.01,10.0,Calm,Calm,-,N/A,,Mostly Cloudy,0,2013-01-04 13:53:00
5:53 AM,-11.0,-16.1,78,30.00,10.0,Calm,Calm,-,N/A,,Mostly Cloudy,0,2013-01-04 14:53:00
6:53 AM,-8.0,-13.0,79,30.00,10.0,Calm,Calm,-,N/A,,Overcast,0,2013-01-04 15:53:00
7:53 AM,-6.0,-11.0,79,30.00,10.0,Calm,Calm,-,N/A,,Overcast,0,2013-01-04 16:53:00
8:53 AM,-5.1,-9.0,83,30.00,10.0,Calm,Calm,-,N/A,,Mostly Cloudy,0,2013-01-04 17:53:00
9:53 AM,-6.0,-9.9,83,30.02,10.0,Calm,Calm,-,N/A,,Mostly Cloudy,0,2013-01-04 18:53:00
10:53 AM,-4.0,-9.0,79,30.04,10.0,Calm,Calm,-,N/A,,Mostly Cloudy,0,2013-01-04 19:53:00
11:53 AM,-4.0,-9.0,79,30.05,10.0,Calm,Calm,-,N/A,,Mostly Cloudy,0,2013-01-04 20:53:00
12:53 PM,-0.9,-6.0,79,30.08,10.0,Calm,Calm,-,N/A,,Mostly Cloudy,0,2013-01-04 21:53:00
1:53 PM,-4.0,-8.0,83,30.10,10.0,Calm,Calm,-,N/A,,Scattered Clouds,0,2013-01-04 22:53:00
2:53 PM,-7.1,-11.0,83,30.11,10.0,SW,3.5,-,N/A,,Scattered Clouds,220,2013-01-04 23:53:00
3:53 PM,-9.0,-14.1,79,30.13,10.0,Calm,Calm,-,N/A,,Scattered Clouds,0,2013-01-05 00:53:00
4:53 PM,-13.0,-18.0,78,30.15,10.0,Calm,Calm,-,N/A,,Scattered Clouds,0,2013-01-05 01:53:00
5:53 PM,-14.1,-18.9,79,30.15,10.0,Calm,Calm,-,N/A,,Partly Cloudy,0,2013-01-05 02:53:00
6:53 PM,-15.0,-20.0,78,30.15,10.0,Calm,Calm,-,N/A,,Partly Cloudy,0,2013-01-05 03:53:00
7:53 PM,-13.0,-18.9,75,30.14,10.0,Calm,Calm,-,N/A,,Scattered Clouds,0,2013-01-05 04:53:00
8:53 PM,-13.0,-18.0,78,30.14,10.0,Calm,Calm,-,N/A,,Scattered Clouds,0,2013-01-05 05:53:00
9:53 PM,-14.1,-18.9,79,30.14,10.0,Calm,Calm,-,N/A,,Partly Cloudy,0,2013-01-05 06:53:00
10:53 PM,-14.1,-18.9,79,30.14,10.0,Calm,Calm,-,N/A,,Partly Cloudy,0,2013-01-05 07:53:00
11:53 PM,-14.1,-20.0,75,30.14,10.0,Calm,Calm,-,N/A,,Partly Cloudy,0,2013-01-05 08:53:00